Location: La Brionne
(46.1728°N, 1.7849°E)
Time: 00:18:22
(UTC+00:00)

USA 215 - Visible Passes

Search period start: 24 October 2021 00:00
Search period end: 03 November 2021 00:00
Orbit: 1102 x 1106 km, 123.0° (Epoch: 22 October)

Date Brightness Start Highest point End Pass type
(mag) Time Alt. Az. Time Alt. Az. Time Alt. Az.
24 Oct 3.4 17:22:53 10° NE 17:29:26 79° NNW 17:35:59 10° WSW visible
24 Oct 4.2 19:08:28 23° NE 19:11:59 40° NNW 19:17:59 10° W visible
24 Oct 4.7 20:55:49 30° NNW 20:55:49 30° NNW 20:59:53 10° WNW visible
25 Oct 3.8 18:24:02 14° NE 18:29:35 53° NNW 18:35:53 10° W visible
25 Oct 4.3 20:11:24 35° N 20:11:50 35° N 20:17:37 10° WNW visible
25 Oct 5.6 21:58:45 16° NW 21:58:45 16° NW 21:59:58 10° NW visible
26 Oct 3.4 17:40:26 10° NE 17:47:00 79° NW 17:53:31 10° WSW visible
26 Oct 4.2 19:26:59 29° NNE 19:29:32 40° NNW 19:35:32 10° W visible
26 Oct 5.0 21:14:20 25° NW 21:14:20 25° NW 21:17:25 10° WNW visible
27 Oct 3.8 18:42:35 19° NE 18:47:08 53° NNW 18:53:26 10° W visible
27 Oct 4.4 20:29:56 34° NNW 20:29:56 34° NNW 20:35:10 10° WNW visible
27 Oct 5.9 22:17:18 11° NW 22:17:18 11° NW 22:17:30 10° NW visible
28 Oct 3.4 17:58:11 11° NE 18:04:33 79° NNW 18:11:05 10° WSW visible
28 Oct 4.2 19:45:32 35° NNE 19:47:05 40° NNW 19:53:05 10° W visible
28 Oct 5.3 21:32:54 20° NW 21:32:54 20° NW 21:34:59 10° WNW visible
29 Oct 3.4 17:15:14 10° NE 17:21:45 64° SE 17:28:14 10° SW visible
29 Oct 3.8 19:01:10 27° NE 19:04:41 53° NNW 19:10:59 10° W visible
29 Oct 4.7 20:48:31 31° NNW 20:48:31 31° NNW 20:52:42 10° WNW visible
30 Oct 3.3 18:16:48 17° NE 18:22:06 78° NNW 18:28:38 10° WSW visible
30 Oct 4.1 20:04:09 39° N 20:04:38 40° NNW 20:10:37 10° W visible
30 Oct 5.6 21:51:31 15° NW 21:51:31 15° NW 21:52:31 10° WNW visible
31 Oct 3.4 17:32:48 10° NE 17:39:18 65° SE 17:45:47 10° SW visible
31 Oct 3.8 19:19:48 36° NNE 19:22:14 53° NNW 19:28:32 10° W visible
31 Oct 5.0 21:07:10 25° NW 21:07:10 25° NW 21:10:15 10° WNW visible
01 Nov 3.3 18:35:28 24° NE 18:39:39 78° NW 18:46:11 10° WSW visible
01 Nov 4.3 20:22:49 39° NNW 20:22:49 39° NNW 20:28:10 10° W visible
02 Nov 3.3 17:51:09 14° ENE 17:56:52 65° SE 18:03:21 10° SW visible
02 Nov 3.8 19:38:30 46° NNE 19:39:47 52° NNW 19:46:05 10° W visible
02 Nov 5.4 21:25:52 19° NW 21:25:52 19° NW 21:27:48 10° WNW visible
